Theta_e
317 317 317 318 317 317 316 316 315 315 316 316 317 317 318 318 317 312 309 314 308 302 305 309 309 304 305 303 298 301 302 303 301 297 296 296 295 297 295 296 296 293 292 291 291 290 290 307 306 299 302 306 307 308
316 316 317 317 317 316 316 315 315 315 316 316 316 317 317 317 316 315 307 314 315 306 307 312 312 308 308 307 302 301 301 302 303 299 298 297 296 295 292 291 297 294 297 294 296 296 304 306 305 307 307 306 307 307
315 316 316 317 316 316 316 315 315 315 315 316 316 316 317 317 316 314 305 308 309 305 306 308 306 308 310 309 308 301 302 304 305 306 300 298 294 296 292 293 296 299 303 298 297 301 305 308 309 310 310 309 310 311
314 314 314 316 316 316 316 316 315 315 315 316 316 316 316 316 316 315 306 309 307 304 301 304 312 307 310 311 310 307 306 304 304 303 298 296 295 299 295 297 297 300 301 298 297 301 304 307 308 308 309 310 311 313
312 313 312 313 313 314 315 316 315 315 315 315 316 316 316 315 314 312 308 311 308 305 299 301 307 310 309 311 309 308 307 304 302 300 298 297 299 300 299 298 298 302 300 297 296 302 302 304 308 310 309 310 311 311
311 312 312 312 312 312 314 315 315 315 315 315 315 315 315 314 313 310 308 311 309 308 302 299 307 305 307 308 307 310 307 305 304 301 300 301 303 301 295 293 302 304 305 305 303 306 305 307 309 312 310 311 311 311
310 311 311 311 311 312 312 314 315 314 314 314 314 314 313 313 307 306 307 310 309 307 305 299 301 306 308 306 306 306 307 305 304 301 300 300 301 301 296 293 300 305 307 307 307 305 304 307 308 312 311 313 314 313
308 309 309 308 309 309 310 312 314 314 314 313 314 313 313 312 310 306 310 311 307 304 306 297 301 302 308 303 302 307 304 303 302 301 302 300 301 300 295 300 305 307 307 307 308 308 308 311 311 312 314 313 311 311
307 308 308 308 308 308 309 311 314 313 312 313 313 313 308 308 307 311 318 314 307 308 302 302 298 298 308 303 303 305 303 298 302 299 299 300 296 294 299 303 306 309 306 306 309 309 310 311 311 313 312 312 311 311
307 307 308 308 308 308 308 311 313 313 312 313 309 308 306 311 317 316 310 306 305 306 304 300 304 300 304 302 301 300 300 297 294 298 303 297 296 303 308 314 312 312 310 310 307 309 312 313 313 313 313 315 315 315
307 307 307 308 308 309 310 312 313 312 312 307 306 307 311 316 308 306 303 302 303 300 303 303 303 300 307 299 297 301 296 296 292 297 297 295 296 303 310 311 311 312 312 313 312 314 315 315 314 315 316 317 318 317
307 307 307 307 308 309 310 312 312 308 311 307 306 308 308 308 304 301 299 301 302 299 304 303 303 304 305 305 299 300 296 297 293 301 297 296 304 308 309 311 312 312 313 314 316 316 318 318 318 317 317 319 319 320
307 307 308 308 308 309 309 312 312 311 310 310 306 304 304 302 293 297 294 298 297 303 303 302 301 304 304 304 300 298 297 295 305 296 296 298 306 308 309 310 311 313 314 315 316 317 317 317 317 317 318 319 320 320
307 307 307 308 308 309 310 312 312 311 306 303 303 291 298 296 299 299 300 302 306 307 305 303 304 302 303 300 299 294 298 299 296 294 294 300 303 306 309 310 311 314 314 314 316 316 316 316 316 318 318 319 319 320
306 306 307 307 309 309 311 312 312 309 307 305 304 292 298 301 303 305 307 307 308 308 305 305 303 302 301 301 298 296 295 294 294 295 297 301 304 308 308 310 313 313 314 315 317 316 317 318 317 317 318 320 320 321
306 306 304 308 309 310 311 311 310 310 309 307 304 301 303 302 304 304 305 305 308 306 304 303 299 297 296 298 295 295 294 293 299 302 302 306 307 307 308 312 314 315 315 317 318 318 317 316 316 316 318 319 321 323
305 303 309 308 311 310 310 309 308 305 305 305 302 305 303 303 303 305 307 307 308 304 298 298 295 294 298 296 294 297 295 300 303 304 305 306 308 311 313 314 315 316 316 318 316 315 315 318 317 316 315 317 321 323
300 308 311 311 310 310 307 307 304 302 300 302 300 302 305 305 304 305 305 306 305 303 301 298 300 295 295 293 296 301 302 306 307 306 306 306 312 313 316 314 315 315 316 319 315 315 315 316 315 315 316 317 319 320
306 308 311 311 310 307 303 303 305 299 300 302 303 305 305 305 306 307 305 308 308 307 303 300 297 295 296 300 303 302 303 304 303 304 305 311 312 313 315 316 315 315 315 317 315 315 314 316 316 316 316 316 316 315
307 307 310 311 311 304 301 301 306 301 299 302 304 303 305 304 305 305 305 305 306 303 299 297 297 299 300 307 306 306 306 307 306 307 308 310 313 315 315 315 315 314 316 318 315 310 314 316 317 317 316 315 314 314
307 308 310 310 307 307 304 301 300 301 303 302 304 304 304 306 303 302 302 304 303 300 298 300 301 302 310 314 313 311 310 311 309 310 310 310 315 314 315 316 316 317 317 317 314 313 312 314 316 317 316 316 316 315
308 311 307 308 303 302 301 305 303 305 303 303 304 304 302 300 301 302 304 302 303 304 303 303 305 311 314 310 311 313 314 314 315 315 311 311 312 312 313 315 315 315 317 316 316 314 314 315 312 314 315 316 314 315
309 308 304 304 299 295 295 307 302 303 300 301 303 302 301 301 303 306 301 302 303 307 310 312 314 314 312 314 315 314 316 317 316 314 316 318 317 315 315 317 317 317 316 317 317 315 316 311 314 314 314 313 313 311
308 302 298 297 297 294 302 299 303 302 303 300 299 298 299 301 304 302 299 301 306 310 310 312 311 312 312 312 312 311 314 316 314 314 314 317 314 315 320 316 317 319 318 317 314 312 313 314 310 310 308 308 309 310
294 293 295 290 299 297 297 299 298 300 297 299 298 298 300 302 297 297 297 300 305 306 307 308 310 310 309 309 313 311 312 312 312 315 317 319 315 314 315 316 316 317 317 313 311 308 307 307 307 308 308 305 305 304
289 295 291 295 297 296 296 294 295 295 296 296 297 299 301 298 296 295 298 303 305 308 309 309 310 310 309 311 308 311 313 316 315 315 315 317 316 313 314 315 311 312 318 313 311 310 309 308 307 306 305 304 301 305
289 294 296 298 297 299 298 299 299 297 295 295 297 299 298 295 294 298 306 309 307 312 313 313 312 311 311 311 310 312 315 318 317 317 321 318 317 316 316 312 310 313 317 317 313 311 308 307 307 308 309 309 309 308
298 300 296 298 300 300 298 297 297 296 296 300 300 297 296 298 298 306 309 311 314 314 313 314 316 314 311 314 313 313 317 317 315 315 316 317 314 313 314 314 309 303 304 308 311 314 313 313 310 309 309 308 308 309
297 302 301 298 298 300 299 298 298 299 301 299 297 297 300 305 309 310 309 311 314 310 311 310 313 311 315 318 315 314 316 313 313 312 310 307 306 308 308 309 308 308 307 305 298 307 314 314 311 310 310 308 308 308
299 302 298 297 296 295 299 302 300 301 302 302 303 303 304 305 308 312 310 311 309 308 308 310 310 313 313 313 315 312 316 315 314 314 313 312 313 316 313 311 311 308 308 308 308 308 305 309 308 310 308 308 307 306
303 302 300 299 296 299 301 302 303 303 305 303 302 300 301 304 306 310 310 310 310 310 311 310 309 314 314 313 313 309 310 316 315 318 317 315 313 308 311 312 311 310 309 309 308 308 308 308 307 307 309 308 306 306
299 299 298 297 298 303 304 304 302 300 301 301 299 302 302 301 301 308 313 311 311 311 308 311 312 314 316 318 318 317 309 316 316 316 316 312 306 307 311 314 314 313 311 308 307 307 307 308 308 309 308 307 307 305
300 300 299 299 299 300 302 302 301 300 301 299 299 301 301 302 301 311 316 320 315 313 315 316 319 321 320 319 319 315 309 314 310 307 304 297 296 297 313 315 314 314 312 308 306 306 306 308 308 309 308 307 306 305
Wind_Speed
9 9 9 8 10 8 9 8 10 11 13 15 16 17 18 19 20 9 5 3 3 1 7 4 4 3 4 4 3 6 5 6 5 5 3 3 3 2 4 3 1 1 2 2 2 1 4 8 5 4 5 5 4 4
8 9 9 7 7 8 9 8 9 11 12 14 15 15 16 16 18 14 3 5 2 4 6 2 5 2 3 4 5 4 6 0 3 4 2 2 3 3 2 3 5 4 4 3 3 5 3 5 5 1 1 3 4 5
6 6 6 6 7 7 8 8 9 10 11 13 14 15 15 15 15 10 3 4 4 3 5 3 2 2 4 3 4 5 3 1 3 4 4 2 1 4 1 4 2 5 5 4 3 4 4 5 2 0 3 6 10 11
5 5 5 6 6 8 8 8 9 10 11 12 13 14 14 14 13 11 2 3 1 0 3 6 2 2 4 5 5 6 5 3 3 4 2 2 2 3 3 5 4 4 4 0 3 3 8 3 6 6 8 9 13 12
7 6 6 6 6 8 8 8 9 10 10 11 13 13 14 15 15 6 3 3 2 4 2 5 7 7 3 5 3 1 4 3 3 3 3 2 1 3 3 3 1 1 5 3 5 6 6 10 11 13 12 14 10 9
11 9 7 7 7 8 9 9 8 10 11 12 13 13 13 13 15 3 3 2 4 3 3 2 5 2 3 5 3 1 2 2 3 4 3 2 3 4 1 2 5 3 4 7 5 6 7 13 14 14 10 13 15 14
7 6 7 8 8 7 9 11 9 9 10 11 13 13 12 10 3 2 4 4 6 3 2 4 5 5 4 2 2 0 2 1 3 1 0 3 1 4 2 3 6 6 6 6 6 3 7 6 11 17 15 16 15 15
9 9 9 9 11 10 11 12 11 9 10 12 13 14 14 16 5 4 3 8 4 1 2 1 5 4 2 1 1 1 1 3 3 3 2 1 3 2 1 6 4 5 6 7 10 8 13 15 17 19 18 14 15 15
9 9 8 9 9 10 11 11 10 9 10 12 14 18 4 1 0 3 3 7 1 3 2 1 3 4 3 2 0 4 3 3 3 2 2 4 3 1 6 3 5 6 6 10 12 9 12 13 15 15 14 14 14 16
9 8 9 8 8 9 11 10 9 9 10 12 4 2 2 3 6 4 4 3 3 1 1 2 1 1 4 3 3 3 3 1 2 4 1 3 3 6 5 3 6 8 9 9 8 16 16 16 15 15 15 15 14 16
9 8 8 8 8 7 9 8 7 8 5 0 2 2 3 0 3 1 2 2 1 2 3 5 4 3 4 4 1 1 2 1 3 5 3 2 3 4 6 6 7 8 8 9 8 12 13 12 14 15 16 18 17 16
8 7 7 7 8 7 7 8 5 1 1 2 3 4 3 2 2 0 3 3 4 5 3 5 3 4 1 4 4 3 2 3 3 2 2 2 4 6 5 8 9 9 9 11 11 12 15 14 14 13 14 16 17 17
7 6 7 7 7 7 6 7 8 7 7 0 1 2 3 2 2 4 4 4 2 2 3 2 1 3 4 4 3 3 1 4 0 1 3 5 4 4 7 7 9 9 10 11 13 11 12 11 13 13 16 15 16 16
7 7 7 7 8 7 7 7 6 2 0 1 3 3 5 4 5 5 4 3 5 4 5 4 3 4 2 3 3 2 4 2 2 2 4 4 4 6 7 6 6 10 12 12 13 11 11 12 15 16 15 15 14 14
8 7 7 7 8 5 6 7 5 1 2 3 2 4 5 6 4 6 6 1 2 4 4 3 4 4 0 3 1 4 1 3 4 3 4 4 5 6 7 7 8 9 11 10 11 11 11 14 14 18 17 15 14 13
6 6 5 8 8 7 9 6 2 1 3 3 4 3 4 1 4 4 2 2 2 3 3 4 3 3 0 4 2 4 1 3 2 3 4 3 4 5 6 7 8 8 9 10 10 9 10 12 15 16 15 14 13 10
4 3 2 9 11 12 11 2 2 3 3 4 4 4 4 4 5 3 3 1 2 4 2 3 3 4 1 2 2 4 4 2 3 2 3 3 4 7 8 7 8 8 9 8 7 8 9 12 13 13 15 15 14 12
3 2 8 14 10 7 1 1 2 2 4 4 3 3 4 2 1 2 1 3 5 2 3 2 3 2 2 2 0 3 1 2 1 3 4 5 6 7 6 6 8 7 7 5 5 8 11 13 12 10 13 13 11 12
1 2 13 15 5 3 3 2 1 2 5 3 4 4 2 1 1 1 1 3 0 2 4 3 2 2 2 3 4 3 2 3 3 4 4 5 7 6 7 7 7 6 6 4 6 6 7 11 10 9 9 10 9 10
6 9 14 14 4 2 3 2 1 3 3 4 2 2 1 3 2 1 1 2 1 2 2 2 4 4 4 2 4 4 4 3 1 3 5 5 5 7 7 6 5 4 2 5 4 6 7 9 10 10 11 11 11 10
4 4 10 5 0 1 0 3 2 4 4 2 2 1 3 2 1 2 2 2 1 3 3 4 4 4 3 2 3 3 3 3 2 3 3 4 6 5 5 5 4 4 4 3 3 5 7 6 7 8 10 11 12 12
2 10 3 1 1 1 1 3 2 3 2 2 3 1 2 2 2 3 3 2 3 4 5 4 3 4 4 2 3 1 2 2 3 1 4 2 4 5 4 3 4 4 4 4 3 4 4 4 4 6 9 9 11 12
7 3 3 2 2 2 3 1 2 3 2 3 2 4 4 3 4 2 2 4 4 4 5 4 3 3 5 4 1 1 2 1 3 4 4 3 3 2 3 4 4 4 4 4 3 4 4 6 7 7 8 8 9 11
3 3 3 3 2 2 1 3 1 2 2 3 4 3 3 4 1 2 3 2 3 1 2 2 2 3 3 2 1 1 3 1 2 2 2 2 4 4 3 3 4 3 3 3 3 4 4 4 5 5 6 6 8 8
4 0 4 2 3 3 4 4 6 5 4 5 2 2 2 2 2 1 2 3 3 3 3 3 2 3 4 2 1 2 3 2 2 2 2 4 3 2 3 4 3 3 3 4 3 4 4 4 5 5 5 6 8 9
2 5 6 5 4 4 5 3 5 5 2 2 2 2 1 2 1 3 3 4 3 4 4 4 3 4 1 3 2 2 3 2 2 2 2 2 4 4 3 3 2 3 2 2 3 3 3 1 3 7 6 6 7 6
4 6 4 3 2 2 3 4 2 4 3 4 2 2 2 2 4 4 2 1 3 3 4 5 5 5 4 2 2 3 2 2 3 3 2 3 4 4 4 3 2 4 3 4 4 3 4 5 5 4 4 4 4 5
4 4 5 5 4 4 3 2 3 3 3 3 3 3 4 2 2 3 3 3 2 4 5 4 3 3 2 4 1 2 3 3 3 3 3 4 1 1 3 2 3 7 4 4 5 5 6 6 5 5 6 5 4 3
4 3 4 6 4 4 3 3 3 3 3 3 4 2 2 3 2 3 2 4 2 3 3 3 1 3 3 4 3 2 3 4 4 8 7 1 3 4 1 2 3 4 4 6 10 8 9 6 6 6 6 5 3 5
3 3 1 1 1 3 3 4 2 3 2 3 3 2 2 2 3 2 1 3 2 2 3 4 4 5 5 5 3 5 5 5 4 4 5 1 3 4 4 3 3 2 4 6 6 6 9 6 5 5 6 5 4 5
3 3 2 3 2 2 3 3 3 1 2 2 2 4 4 3 2 2 3 4 3 3 1 2 1 5 5 4 4 5 3 0 3 4 4 1 4 5 6 6 4 3 4 5 6 5 5 2 3 6 6 6 4 5
2 4 3 4 4 7 3 1 2 1 1 2 2 2 2 3 1 2 3 2 4 2 3 3 4 3 3 3 3 3 4 3 4 5 6 4 5 6 2 7 5 4 7 6 6 6 8 7 5 5 6 6 6 7
3 3 4 2 3 2 3 2 3 2 2 1 2 4 3 2 5 2 3 5 3 4 5 5 4 5 6 5 5 5 5 4 9 9 11 9 9 7 5 5 5 6 8 7 6 6 7 9 7 7 7 6 4 5
Wind_Direction
278 290 292 296 307 313 313 318 322 329 336 338 342 347 352 356 357 4 277 322 85 78 282 13 22 46 9 52 100 279 39 353 28 55 86 301 45 311 48 292 85 156 95 294 28 249 237 330 25 87 244 326 336 347
267 278 279 282 301 312 311 311 316 322 329 335 339 342 348 352 357 360 320 321 351 147 236 294 269 163 153 173 146 356 169 322 187 83 32 74 351 17 136 300 330 23 165 190 127 197 233 321 96 105 199 257 292 286
265 283 292 291 303 307 305 305 308 315 321 328 333 339 342 345 352 5 285 295 359 37 317 37 226 304 48 84 165 107 333 236 9 171 163 181 31 120 325 272 355 343 30 73 65 216 222 208 251 274 314 275 286 278
276 286 301 304 306 306 309 304 303 307 315 322 327 331 335 338 338 353 315 293 135 70 88 287 355 73 138 83 87 145 171 13 108 75 107 126 156 147 223 222 137 216 65 110 269 306 315 220 288 284 280 285 288 278
268 270 281 296 306 308 312 308 301 301 306 314 320 325 331 334 331 311 220 274 301 115 215 278 304 255 123 120 139 91 91 95 75 33 59 249 231 52 323 56 17 161 178 133 234 228 206 268 288 292 292 291 285 280
262 249 249 270 284 302 310 310 298 298 301 307 315 319 324 333 338 4 31 294 25 41 88 353 284 193 158 181 179 243 180 136 117 135 225 286 248 101 87 235 241 183 161 170 231 219 234 263 274 277 274 285 287 282
293 259 254 263 267 289 306 309 297 294 299 304 308 310 311 321 2 152 205 251 19 21 78 337 327 277 176 150 321 63 356 172 123 181 130 163 308 90 125 218 249 202 209 213 230 246 293 251 275 292 283 281 285 282
258 259 262 267 275 279 289 294 295 291 300 302 304 304 303 298 254 302 257 248 140 107 88 105 274 11 150 273 287 158 86 46 338 175 18 92 346 51 290 253 220 225 275 298 269 228 240 273 287 282 282 284 284 285
263 261 261 260 263 268 276 279 287 285 296 301 304 301 308 78 203 237 138 126 156 130 143 37 163 227 9 327 63 16 71 37 307 62 291 85 324 263 233 270 275 264 254 266 285 271 275 276 276 282 277 277 270 276
266 262 258 257 257 260 267 275 282 286 296 307 308 356 323 239 118 99 21 33 5 307 42 219 242 281 91 18 1 54 22 110 40 261 41 81 257 264 259 243 248 268 271 289 301 308 310 301 297 299 290 288 276 273
266 270 264 253 259 255 273 279 273 307 303 239 277 248 267 304 46 30 273 151 193 242 209 231 177 121 336 96 194 115 175 18 51 273 102 301 279 264 284 294 289 288 287 279 251 269 283 271 288 296 298 297 293 281
259 269 266 256 251 251 263 277 236 221 326 232 272 275 300 5 21 250 238 280 178 223 187 143 197 152 266 94 85 341 97 45 248 217 82 250 248 254 297 289 291 294 294 296 289 289 298 292 291 297 295 296 302 296
255 257 264 256 242 246 278 246 216 274 322 121 249 276 87 273 43 214 211 246 198 198 168 121 94 126 22 57 63 71 29 222 104 47 227 232 250 277 276 281 289 293 290 288 294 296 300 291 300 297 293 300 303 297
240 253 256 255 241 241 281 210 203 244 317 218 172 309 168 229 232 203 224 233 227 151 147 125 114 132 155 78 141 97 245 64 257 222 241 249 244 261 283 285 297 290 298 303 297 302 306 307 307 306 308 301 296 294
233 248 258 260 233 237 222 179 167 162 267 247 188 221 215 236 269 253 248 136 0 116 107 82 50 93 70 102 79 70 342 251 207 233 237 255 256 267 291 294 289 296 311 308 309 314 315 312 317 319 319 311 306 302
243 264 225 209 203 195 158 146 154 227 252 243 242 284 272 320 313 348 349 30 356 82 62 55 91 68 238 126 118 218 211 246 250 235 249 259 282 294 290 289 296 300 303 305 321 322 314 325 332 323 325 334 333 343
187 250 203 185 158 143 169 148 165 211 261 263 257 237 228 239 246 292 44 12 303 74 110 103 100 202 157 104 215 183 212 265 265 319 279 305 296 293 284 291 306 314 316 343 332 322 328 335 334 339 345 338 338 340
238 319 173 155 137 114 141 217 181 199 246 257 266 270 278 207 110 33 328 2 63 85 80 186 142 76 224 179 119 302 93 310 354 275 278 286 287 306 317 316 317 309 322 359 345 336 352 345 349 347 342 338 342 356
175 350 168 156 166 120 145 171 194 232 236 278 274 267 245 261 167 166 25 342 70 157 98 56 102 187 234 204 160 197 212 212 243 280 279 291 301 313 325 316 310 327 352 37 14 355 350 354 358 360 358 356 2 3
266 312 175 185 204 133 138 116 134 244 250 239 266 303 292 225 197 178 271 313 33 85 64 156 204 213 186 235 190 181 200 217 150 329 306 309 314 333 322 310 308 316 47 66 19 358 10 20 18 15 12 6 5 359
134 211 165 182 243 324 164 154 203 229 264 247 276 169 257 295 135 190 224 191 99 187 196 211 223 251 170 179 169 177 197 160 226 204 251 303 316 315 313 325 16 24 41 61 38 358 23 23 6 4 9 8 4 12
121 159 102 118 142 169 266 228 243 300 259 240 317 158 303 243 230 227 182 136 216 222 189 182 216 153 163 204 236 156 236 283 281 302 305 286 326 333 348 5 47 44 43 45 46 36 10 14 353 22 24 17 18 24
138 88 82 135 111 63 267 133 229 227 225 210 224 194 231 221 224 127 202 203 221 212 186 165 176 147 156 202 136 50 244 332 330 298 303 331 313 357 29 40 37 70 62 31 37 51 37 4 27 41 44 41 37 40
58 76 117 149 146 227 216 219 222 293 272 232 203 214 219 211 187 101 199 211 231 131 59 129 107 74 33 29 37 300 293 298 22 344 342 358 63 26 43 68 55 58 79 84 59 51 34 19 23 29 28 31 35 37
91 2 122 184 219 208 226 201 188 184 234 215 218 268 239 88 112 195 204 252 193 164 185 189 132 158 161 216 342 306 295 155 160 172 2 74 113 31 36 50 37 56 112 90 63 65 43 32 39 50 42 41 43 41
145 203 188 199 181 202 211 207 200 208 209 192 239 234 49 92 146 238 231 209 188 180 201 174 150 108 177 175 190 282 315 31 105 77 350 70 139 144 130 102 52 352 3 148 130 140 144 131 48 53 55 64 71 65
196 195 210 228 245 200 243 248 211 122 193 190 198 160 135 206 228 247 279 224 153 182 147 159 161 167 181 204 250 245 243 142 142 182 163 114 153 164 143 148 180 240 240 200 178 164 132 115 114 117 95 75 71 76
240 196 187 184 210 223 259 185 137 173 199 233 118 170 178 231 244 249 222 281 227 139 136 179 195 166 185 224 198 94 51 89 48 45 88 66 81 135 129 125 133 67 60 79 112 113 112 107 96 87 89 87 65 65
234 217 176 197 213 217 210 199 199 200 208 128 149 200 171 228 237 187 218 239 71 81 96 121 117 148 135 75 69 74 61 91 92 87 71 34 337 304 268 143 118 120 109 77 47 96 106 108 106 98 84 67 51 58
243 160 121 136 201 228 243 181 197 234 195 177 144 41 28 321 249 225 145 103 160 184 168 149 176 140 148 149 149 55 40 72 55 117 104 30 267 280 312 253 162 152 112 103 98 91 80 89 71 65 68 66 57 45
157 139 188 235 227 239 244 278 282 305 167 153 138 146 207 249 313 280 187 186 185 142 232 302 238 158 150 154 147 128 119 136 204 122 128 301 282 253 218 219 195 193 154 135 153 160 129 110 111 111 102 106 107 74
188 186 189 158 204 252 272 252 143 69 355 137 206 185 337 23 266 310 294 128 77 116 86 112 124 142 141 143 134 126 150 138 61 42 3 318 306 304 200 136 136 129 118 122 98 109 124 135 146 131 122 130 125 122
200 205 213 252 154 240 210 151 186 212 206 229 243 170 161 132 184 229 320 38 114 139 131 145 150 121 125 141 141 149 173 151 83 19 331 6 353 310 80 90 100 89 107 110 109 103 94 122 138 148 162 163 149 124